XNO189L EGGD-LPFR

Flight info

Callsign XNO189L
Flight time N/A
Altitude 34000
Route EXMOR N92 DAWLY DCT BHD DCT SALCO DCT IBISU/N0454F350 DCT BALDA DCT ABUPI DCT ORVED DCT UPULO DCT ALAGU
Aircraft A320/M-SDE3FGHIRWY/LB1

Departure

Time 2026-05-07 18:59
Airport Bristol Airport (EGGD)

Arrival

Time N/A
Airport Faro - Gago Coutinho International Airport (LPFR)
Time Latitude Longitude Altitude Speed Heading
2026-05-07 18:17 51.38521 -2.71142 620 ft 0 kts 356°
2026-05-07 18:49 51.38498 -2.71139 627 ft 4 kts 356°
2026-05-07 18:49 51.38476 -2.71138 628 ft 4 kts 11°
2026-05-07 18:50 51.38458 -2.71156 627 ft 4 kts 76°
2026-05-07 18:50 51.38456 -2.71186 627 ft 0 kts 86°
2026-05-07 18:52 51.38456 -2.71183 628 ft 1 kts 86°
2026-05-07 18:53 51.38457 -2.71161 627 ft 6 kts 86°
2026-05-07 18:53 51.38462 -2.71039 614 ft 12 kts 86°
2026-05-07 18:53 51.38466 -2.70911 614 ft 11 kts 86°
2026-05-07 18:53 51.38471 -2.70802 612 ft 10 kts 86°
2026-05-07 18:54 51.38475 -2.70684 610 ft 11 kts 86°
2026-05-07 18:54 51.38478 -2.70575 619 ft 8 kts 95°
2026-05-07 18:54 51.38460 -2.70532 617 ft 4 kts 142°
2026-05-07 18:54 51.38443 -2.70520 618 ft 0 kts 160°
2026-05-07 18:57 51.38442 -2.70520 618 ft 1 kts 160°
2026-05-07 18:57 51.38413 -2.70507 612 ft 8 kts 166°
2026-05-07 18:57 51.38364 -2.70488 611 ft 5 kts 166°
2026-05-07 18:58 51.38348 -2.70485 612 ft 5 kts 178°
2026-05-07 18:58 51.38321 -2.70547 618 ft 4 kts 265°
2026-05-07 18:58 51.38321 -2.70554 617 ft 0 kts 266°
2026-05-07 18:58 51.38309 -2.70904 620 ft 72 kts 266°
2026-05-07 18:59 51.38260 -2.72129 621 ft 143 kts 267°
2026-05-07 18:59 51.38192 -2.73881 1106 ft 162 kts 267°
2026-05-07 18:59 51.38137 -2.75707 1975 ft 167 kts 264°
2026-05-07 18:59 51.38081 -2.77602 2809 ft 169 kts 264°
2026-05-07 19:00 51.38014 -2.79545 3110 ft 188 kts 264°
2026-05-07 19:00 51.37948 -2.81728 3443 ft 204 kts 265°
2026-05-07 19:00 51.37879 -2.84168 3677 ft 231 kts 265°
2026-05-07 19:00 51.37662 -2.86777 4056 ft 249 kts 245°
2026-05-07 19:01 51.36589 -2.88958 4703 ft 255 kts 218°
2026-05-07 19:01 51.35217 -2.90783 5511 ft 260 kts 218°
2026-05-07 19:01 51.33821 -2.92672 6040 ft 265 kts 220°
2026-05-07 19:01 51.32451 -2.94640 6229 ft 266 kts 221°
2026-05-07 19:02 51.31107 -2.96699 6721 ft 267 kts 223°
2026-05-07 19:02 51.29806 -2.98804 7636 ft 267 kts 226°
2026-05-07 19:02 51.28736 -3.01252 8402 ft 272 kts 242°
2026-05-07 19:02 51.27949 -3.04018 9231 ft 275 kts 243°
2026-05-07 19:03 51.27115 -3.06771 10054 ft 276 kts 242°
2026-05-07 19:03 51.26219 -3.09577 10569 ft 288 kts 242°
2026-05-07 19:03 51.25264 -3.12512 10887 ft 307 kts 241°
2026-05-07 19:03 51.24249 -3.15633 11141 ft 327 kts 242°
2026-05-07 19:04 51.23193 -3.18953 11388 ft 344 kts 242°
2026-05-07 19:04 51.22095 -3.22454 11614 ft 361 kts 243°
2026-05-07 19:04 51.20974 -3.26070 12244 ft 364 kts 243°
2026-05-07 19:04 51.19762 -3.29612 12964 ft 365 kts 235°
2026-05-07 19:05 51.18092 -3.32662 13615 ft 368 kts 221°
2026-05-07 19:05 51.15994 -3.35003 14178 ft 372 kts 208°
2026-05-07 19:05 51.13579 -3.36539 14684 ft 377 kts 196°
2026-05-07 19:05 51.10982 -3.37203 15276 ft 379 kts 185°
2026-05-07 19:06 51.08372 -3.37536 15765 ft 384 kts 186°
2026-05-07 19:06 51.02995 -3.38440 16844 ft 388 kts 188°
2026-05-07 19:06 51.00302 -3.38952 17385 ft 391 kts 188°
2026-05-07 19:07 50.97630 -3.39461 17912 ft 393 kts 188°
2026-05-07 19:07 50.94905 -3.39968 18409 ft 396 kts 188°
2026-05-07 19:07 50.93053 -3.40302 18709 ft 397 kts 187°
2026-05-07 19:07 50.90297 -3.40784 19154 ft 400 kts 187°
2026-05-07 19:08 50.86625 -3.41413 19735 ft 402 kts 187°
2026-05-07 19:08 50.83834 -3.41891 20171 ft 404 kts 187°
2026-05-07 19:08 50.81030 -3.42370 20599 ft 407 kts 187°
2026-05-07 19:08 50.78206 -3.42848 21019 ft 409 kts 187°
2026-05-07 19:09 50.76293 -3.43171 21302 ft 410 kts 187°
2026-05-07 19:09 50.73444 -3.43655 21710 ft 413 kts 187°
2026-05-07 19:09 50.70582 -3.44146 22131 ft 415 kts 187°
2026-05-07 19:09 50.67707 -3.44640 22521 ft 417 kts 187°
2026-05-07 19:10 50.64817 -3.45136 22896 ft 419 kts 187°
2026-05-07 19:10 50.61910 -3.45631 23270 ft 421 kts 187°
2026-05-07 19:10 50.58991 -3.46125 23632 ft 423 kts 187°
2026-05-07 19:10 50.56058 -3.46620 23950 ft 425 kts 187°
2026-05-07 19:11 50.53112 -3.47117 24269 ft 427 kts 187°
2026-05-07 19:11 50.50157 -3.47617 24581 ft 428 kts 187°
2026-05-07 19:11 50.47185 -3.48126 24886 ft 430 kts 187°
2026-05-07 19:11 50.44203 -3.48635 25179 ft 432 kts 187°
2026-05-07 19:12 50.41212 -3.49145 25469 ft 433 kts 187°
2026-05-07 19:12 50.38203 -3.49598 25746 ft 435 kts 185°
2026-05-07 19:12 50.35172 -3.49877 26019 ft 437 kts 184°
2026-05-07 19:12 50.32128 -3.50029 26298 ft 439 kts 182°
2026-05-07 19:13 50.29073 -3.50116 26570 ft 440 kts 182°
2026-05-07 19:13 50.26003 -3.50195 26828 ft 442 kts 182°
2026-05-07 19:13 50.22926 -3.50295 27086 ft 443 kts 182°
2026-05-07 19:13 50.19839 -3.50426 27362 ft 444 kts 183°
2026-05-07 19:14 50.16754 -3.50586 27731 ft 443 kts 183°
2026-05-07 19:14 50.13678 -3.50765 28100 ft 442 kts 184°
2026-05-07 19:14 50.10611 -3.50950 28484 ft 440 kts 184°
2026-05-07 19:14 50.07553 -3.51132 28848 ft 439 kts 184°
2026-05-07 19:15 50.04500 -3.51310 29235 ft 438 kts 184°
2026-05-07 19:15 50.01458 -3.51481 29609 ft 437 kts 184°
2026-05-07 19:15 49.98416 -3.51643 29979 ft 437 kts 183°
2026-05-07 19:15 49.95385 -3.51799 30308 ft 436 kts 183°
2026-05-07 19:16 49.92360 -3.51958 30620 ft 435 kts 184°
2026-05-07 19:16 49.89341 -3.52120 30926 ft 434 kts 184°
2026-05-07 19:16 49.86330 -3.52280 31242 ft 432 kts 184°
2026-05-07 19:16 49.83325 -3.52435 31550 ft 432 kts 184°
2026-05-07 19:17 49.80326 -3.52591 31862 ft 431 kts 184°
2026-05-07 19:17 49.77333 -3.52750 32174 ft 430 kts 184°
2026-05-07 19:17 49.74355 -3.53030 32475 ft 428 kts 189°
2026-05-07 19:17 49.71449 -3.53943 32775 ft 426 kts 197°
2026-05-07 19:18 49.68607 -3.55213 33050 ft 425 kts 197°
2026-05-07 19:18 49.65769 -3.56477 33347 ft 424 kts 197°
2026-05-07 19:18 49.62934 -3.57731 33650 ft 423 kts 197°
2026-05-07 19:18 49.60106 -3.58976 33933 ft 423 kts 197°
2026-05-07 19:19 49.54415 -3.61475 33993 ft 427 kts 197°
2026-05-07 19:19 49.48700 -3.63976 33993 ft 427 kts 197°
2026-05-07 19:20 49.42974 -3.66477 33993 ft 428 kts 197°
2026-05-07 19:20 49.37254 -3.68974 33990 ft 428 kts 197°
2026-05-07 19:21 49.31530 -3.71469 33992 ft 428 kts 197°
2026-05-07 19:21 49.25803 -3.73951 33991 ft 428 kts 197°
2026-05-07 19:22 49.20077 -3.76428 33976 ft 427 kts 197°
2026-05-07 19:22 49.14354 -3.78917 33980 ft 428 kts 197°
2026-05-07 19:23 49.08632 -3.81399 33986 ft 428 kts 197°
2026-05-07 19:23 49.02902 -3.83863 33989 ft 428 kts 197°
2026-05-07 19:24 48.97175 -3.86306 33979 ft 428 kts 197°
2026-05-07 19:24 48.91435 -3.88756 33988 ft 428 kts 197°
2026-05-07 19:25 48.85699 -3.91210 33982 ft 428 kts 197°
2026-05-07 19:25 48.79962 -3.93666 33995 ft 429 kts 197°
2026-05-07 19:26 48.74213 -3.96110 33985 ft 429 kts 197°
2026-05-07 19:26 48.68453 -3.98548 33985 ft 430 kts 197°
2026-05-07 19:27 48.62691 -4.00989 33988 ft 430 kts 198°
2026-05-07 19:27 48.56923 -4.03436 33970 ft 431 kts 198°
2026-05-07 19:28 48.51149 -4.05869 33984 ft 431 kts 198°
2026-05-07 19:28 48.45360 -4.08281 33986 ft 432 kts 198°
2026-05-07 19:29 48.39564 -4.10699 33985 ft 432 kts 198°
2026-05-07 19:29 48.33769 -4.13130 33971 ft 433 kts 198°
2026-05-07 19:30 48.27960 -4.15557 33978 ft 434 kts 198°
2026-05-07 19:30 48.22145 -4.17983 33987 ft 434 kts 198°
2026-05-07 19:31 48.16322 -4.20412 33987 ft 435 kts 198°
2026-05-07 19:31 48.10493 -4.22823 33980 ft 435 kts 198°
2026-05-07 19:32 48.04644 -4.25235 33980 ft 436 kts 198°
2026-05-07 19:32 47.98789 -4.27641 33981 ft 437 kts 199°
2026-05-07 19:33 47.92918 -4.30052 33965 ft 438 kts 199°
2026-05-07 19:33 47.87037 -4.32469 33972 ft 439 kts 199°
2026-05-07 19:34 47.81144 -4.34891 33984 ft 440 kts 199°
2026-05-07 19:34 47.75236 -4.37297 33985 ft 441 kts 199°
2026-05-07 19:35 47.69664 -4.39564 33973 ft 441 kts 199°